TIME,DELAY(SENSOR),PRES,T(CTD),SAL,OXYGEN,RAWTEMP,T(OPTODE),TCPHASE,FLUOR,BETA(BETA700),BETA(BETA412),BETA(BETA440),CDOM,C(CSC),ED(ED411.90),ED(ED443.80),ED(ED489.40),ED(ED554.70),LU(LU412.20),LU(LU443.80),LU(LU489.40),LU(LU555.00),COMP,TILTX,TILTX(TILTY),CHECK
1340207220,5805,497.3800048828125000,15.8648004531860350,36.1530990600585940,206.8775939941406200,240.2528991699218800,15.8577299118042000,33.9603996276855500,50,107,101,80,71,15419,2147476745,2147774747,2147562066,2147801408,2147312438,2147475282,2147721673,2148243008,2204,7,13,29833
1340207347,5805,486.6799926757812500,16.0846004486084000,36.1958999633789060,211.1101989746093800,232.3180999755859400,16.0989799499511720,33.6086997985839840,50,107,100,80,69,15416,2147477339,2147771410,2147563291,2147803236,2147316900,2147473088,2147718308,2148242240,2891,7,13,6360
1340207488,5804,475.0599975585937500,16.3162994384765620,36.2411994934082000,217.8968048095703000,224.8827972412109400,16.3250408172607420,33.1329307556152340,50,108,100,79,70,15418,2147478930,2147769947,2147561042,2147798857,2147313499,2147473892,2147717019,2148245613,3158,7,13,54664
1340207615,5802,464.8599853515625000,16.4965000152587900,36.2778015136718750,221.0111999511718800,219.1802978515625000,16.4984207153320300,32.8880500793457000,50,109,99,80,69,15418,2147476589,2147773376,2147562038,2147799515,2147314624,2147475638,2147716077,2148244800,574,7,13,11974
1340207756,5802,453.5400085449219000,16.6602001190185550,36.3106002807617200,224.4552001953125000,213.8894958496093800,16.6592903137207030,32.6352195739746100,50,106,100,79,68,15419,2147476370,2147770953,2147560374,2147800265,2147314441,2147475035,2147717522,2148244059,1269,7,13,8046
1340207895,5803,442.6300048828125000,16.8215007781982420,36.3431015014648440,226.5195007324218800,208.6578979492187500,16.8183803558349600,32.4568901062011700,50,107,100,78,68,15418,2147481810,2147769270,2147560182,2147800320,2147313097,2147472246,2147714496,2148250614,1411,7,13,22779
1340208034,5803,431.4700012207031000,16.9237003326416000,36.3629989624023440,228.1965942382812500,205.1452941894531200,16.9251995086669920,32.3235092163085940,50,107,100,79,67,15417,2147484982,2147767981,2147559780,2147797622,2147314816,2147474688,2147717248,2148245915,1690,7,13,17848
1340208157,5803,419.9299926757812500,17.0627002716064450,36.3895988464355500,229.5426940917968800,200.5218048095703000,17.0658092498779300,32.1920814514160160,50,106,100,79,68,15419,2147482706,2147769828,2147560329,2147796022,2147310729,2147473536,2147716233,2148247094,1880,7,13,57411
1340208260,5803,409.0299987792969000,17.1601009368896500,36.4089012145996100,231.1470031738281200,197.3009033203125000,17.1637802124023440,32.0680809020996100,50,107,100,80,67,15419,2147479981,2147770797,2147560128,2147797184,2147313133,2147473600,2147716324,2148251584,2130,7,13,26729
1340208363,5803,398.0400085449219000,17.2639007568359380,36.4295997619628900,232.8202056884765600,194.0881958007812500,17.2615108489990230,31.9417591094970700,50,107,100,80,67,15419,2147485577,2147767616,2147560676,2147794486,2147310966,2147477787,2147713664,2148249536,2512,7,13,22027
1340208480,5803,386.8500061035156000,17.3628997802734380,36.4496002197265600,234.7642974853515600,190.8231048583984400,17.3608493804931640,31.8027801513671880,50,106,100,79,66,15416,2147482240,2147769490,2147559314,2147795520,2147316251,2147478738,2147715145,2148246016,3460,7,13,39151
1340208619,5806,375.2500000000000000,17.4456005096435550,36.4648017883300800,235.3500061035156200,188.0957031250000000,17.4438304901123050,31.7371997833251950,49,107,100,78,66,15419,2147485092,2147771721,2147561142,2147796059,2147315236,2147476041,2147718646,2148247533,626,7,13,19565
1340208748,5805,364.4200134277344000,17.5205001831054700,36.4785995483398440,236.1665954589843800,185.6038970947265600,17.5196495056152340,31.6637706756591800,50,108,100,81,68,15420,2147485805,2147768009,2147563190,2147795904,2147312283,2147478601,2147717440,2148246290,688,7,13,64334
1340208887,5805,352.9500122070312500,17.5881996154785160,36.4902000427246100,236.4537963867187500,183.4815063476562500,17.5842399597167970,31.6213607788085940,50,108,100,79,67,15417,2147485174,2147769609,2147565979,2147796406,2147318994,2147476516,2147717275,2148246729,888,7,13,53252
1340209014,5803,342.4500122070312500,17.6263008117675780,36.4970016479492200,236.6058959960937500,182.1631011962890600,17.6243591308593750,31.5961208343505860,50,108,98,80,66,15419,2147488009,2147772306,2147566619,2147791497,2147314368,2147478134,2147719369,2148246491,1375,7,13,31235
1340209155,5803,331.1099853515625000,17.6902999877929700,36.5077018737793000,236.0552062988281200,180.0084075927734400,17.6899394989013670,31.5933704376220700,50,107,99,79,66,15417,2147488155,2147770477,2147571748,2147792758,2147313545,2147482450,2147723693,2148248411,2102,7,13,46926
1340209294,5805,320.2500000000000000,17.7437000274658200,36.5176010131835940,237.2104949951172000,178.2357940673828000,17.7438907623291000,31.5142993927001950,50,107,99,79,67,15418,2147488493,2147773851,2147576091,2147792941,2147311899,2147480429,2147721691,2148241965,2686,7,13,26314
1340209437,5801,307.8599853515625000,17.8136997222900400,36.5303001403808600,238.3948974609375000,175.9768981933593800,17.8126506805419920,31.4273891448974600,50,107,99,81,65,15416,2147487488,2147775168,2147585554,2147793499,2147315437,2147483858,2147728905,2148245979,3403,7,13,34861
1340209552,5807,296.4800109863281000,17.8866004943847660,36.5413017272949200,238.5760040283203000,173.5807952880859400,17.8855991363525400,31.3867893218994140,50,108,100,80,66,15415,2147488000,2147777810,2147595154,2147793536,2147314541,2147482249,2147735360,2148247579,100,8,13,22329
1340209667,5805,285.3699951171875000,17.9370002746582030,36.5495986938476560,238.6842041015625000,171.9750976562500000,17.9344902038574220,31.3598308563232420,50,108,100,79,66,15415,2147486838,2147779968,2147608201,2147795867,2147310445,2147485513,2147745828,2148246189,3314,7,13,33249
1340209784,5804,274.1400146484375000,17.9832000732421880,36.5547981262207000,238.4221038818359400,170.3692932128906200,17.9833793640136720,31.3505992889404300,50,109,101,81,66,15414,2147487917,2147785179,2147626176,2147793563,2147312987,2147487808,2147755712,2148247085,246,7,13,31658
1340209899,5804,263.4400024414062500,18.0394992828369140,36.5615997314453100,237.5785064697265600,168.5680999755859400,18.0382308959960940,31.3665504455566400,50,109,101,80,67,15409,2147491209,2147795090,2147650742,2147795218,2147318308,2147499382,2147771090,2148245622,434,7,13,39776
1340210028,5806,251.6199951171875000,18.0727996826171880,36.5564002990722660,235.5699005126953000,167.4080963134765600,18.0735607147216800,31.4469699859619140,50,114,102,82,67,15402,2147490660,2147808914,2147689344,2147794084,2147316754,2147505782,2147792210,2148246006,332,7,12,59783
1340210155,5806,240.0299987792968800,18.1601009368896500,36.5679016113281250,234.6542968750000000,164.6208038330078000,18.1584491729736330,31.4531898498535160,50,115,102,81,67,15402,2147492370,2147821796,2147739236,2147793490,2147317449,2147518336,2147824603,2148249490,479,7,13,24077
1340210270,5806,229.5099945068359400,18.2231006622314450,36.5751991271972660,233.4181060791015600,162.5290985107422000,18.2221698760986330,31.4848995208740230,50,113,102,80,68,15402,2147498112,2147841426,2147799012,2147792758,2147311049,2147531062,2147857645,2148249270,417,7,13,25917
1340210399,5804,217.6799926757812500,18.3097000122070300,36.5786018371582000,231.5623016357422000,159.6730041503906200,18.3091793060302730,31.5367794036865230,50,114,102,82,67,15397,2147499739,2147877604,2147882496,2147791131,2147318198,2147550774,2147907282,2148257088,568,7,12,34938
1340210514,5804,206.7700042724609400,18.4419002532959000,36.5825996398925800,228.8632965087890600,155.2268981933593800,18.4446601867675780,31.6096992492675780,50,114,103,82,66,15393,2147505554,2147934034,2148025124,2147792457,2147316617,2147583113,2147988882,2148256969,1072,8,13,42748
1340210617,5806,197.0200042724609400,18.7192993164062500,36.5946006774902340,228.6163024902343800,146.5028076171875000,18.7106208801269530,31.5045509338378900,50,118,100,81,67,15398,2147519826,2147999899,2148190784,2147795035,2147328795,2147630116,2148086573,2148264521,692,7,13,28454
1340210691,5804,190.2799987792968800,18.9396991729736330,36.6026000976562500,231.9524993896484400,138.9362030029297000,18.9414196014404300,31.2403297424316400,50,115,101,83,66,15394,2147530596,2148057920,2148328640,2147793782,2147326729,2147660644,2148166089,2148266496,619,7,12,52079
1340210746,5803,185.5399932861328000,19.0699005126953120,36.6040992736816400,235.8099975585937500,134.6053924560547000,19.0735797882080080,30.9978504180908200,50,115,102,82,65,15399,2147539410,2148110464,2148443410,2147794139,2147336100,2147697764,2148237220,2148267675,677,7,13,27669
1340210801,5803,180.8000030517578000,19.1634998321533200,36.6049003601074200,240.9669036865234400,131.7102966308593800,19.1619491577148440,30.7181491851806640,51,115,102,82,65,15396,2147550912,2148168923,2148577188,2147796032,2147334875,2147746934,2148315364,2148274358,690,7,12,9578
1340210856,5803,176.1199951171875000,19.2621994018554700,36.6080017089843750,246.6112060546875000,128.4830017089843800,19.2604904174804700,30.4186592102050780,50,118,101,83,64,15399,2147565522,2148232374,2148722230,2147796653,2147335643,2147789019,2148408292,2148281691,659,7,13,44938
1340210911,5805,171.6999969482422000,19.3148994445800780,36.6090011596679700,251.4676055908203000,126.6451034545898400,19.3166103363037100,30.1790409088134770,50,116,101,81,62,15398,2147584100,2148303140,2148874112,2147794112,2147357824,2147841545,2148509732,2148283446,472,7,13,45427
1340210966,5805,167.3600006103515600,19.3360004425048830,36.6091995239257800,255.0128021240234400,126.0662994384765600,19.3342895507812500,30.0173606872558600,50,116,102,81,63,15396,2147601764,2148382610,2149056923,2147794596,2147360347,2147905179,2148620964,2148289654,486,7,12,35396
1340211044,5805,161.9199981689453000,19.3553009033203120,36.6072998046875000,257.6145019531250000,125.5139007568359400,19.3511600494384770,29.8987598419189450,52,116,102,82,64,15389,2147625718,2148489801,2149288576,2147796909,2147379794,2147980132,2148767753,2148298660,577,8,12,10863
1340211111,5803,158.0399932861328000,19.3652992248535160,36.6074981689453100,258.9132080078125000,125.1652984619140600,19.3618106842041000,29.8389396667480470,54,117,101,82,63,15389,2147656192,2148584484,2149499264,2147796114,2147398573,2148051629,2148903076,2148304832,727,7,13,19178
1340211178,5806,154.3999938964843800,19.3715991973876950,36.6085014343261700,259.7800903320312500,124.9266967773437500,19.3691005706787100,29.7994899749755860,54,120,102,82,65,15392,2147685677,2148685851,2149717897,2147798006,2147408795,2148126098,2149033389,2148312932,549,7,12,52417
1340211257,5802,150.3000030517578000,19.3745994567871100,36.6059989929199200,260.5480957031250000,124.8002014160156200,19.3729591369628900,29.7654991149902340,58,120,103,83,63,15387,2147721088,2148817984,2149996708,2147798692,2147427200,2148217289,2149205074,2148322468,809,8,13,40682
1340211338,5804,146.3399963378906200,19.3777008056640620,36.6031990051269500,260.4909973144531000,124.7350006103515600,19.3749504089355470,29.7669506072998050,62,118,104,83,63,15384,2147769307,2148963931,2150295497,2147803337,2147459474,2148317513,2149384256,2148333888,970,7,12,6252
1340211417,5804,142.6900024414062500,19.3785991668701170,36.6006011962890600,260.6289978027344000,124.7089996337890600,19.3757495880126950,29.7608299255371100,65,120,102,82,64,15376,2147828918,2149119195,2150615744,2147805165,2147485796,2148422619,2149572004,2148345216,1114,7,13,17300
1340211508,5804,138.6100006103515600,19.3789005279541000,36.5989990234375000,260.9318847656250000,124.6807022094726600,19.3766098022460940,29.7477092742919920,69,122,101,82,63,15373,2147903954,2149339574,2151048128,2147811648,2147515986,2148564132,2149810624,2148361453,993,7,13,9981
1340211599,5804,134.5599975585937500,19.3787994384765620,36.5968017578125000,261.1126098632812500,124.6789016723632800,19.3766708374023440,29.7401199340820300,71,122,102,82,63,15369,2148000265,2149594459,2151536704,2147820032,2147574418,2148724845,2150078582,2148379922,993,7,12,47048
1340211692,5801,130.3500061035156200,19.3794994354248050,36.5951004028320300,261.1181945800781000,124.6343994140625000,19.3780307769775400,29.7393608093261720,77,125,103,83,64,15358,2148121344,2149901165,2152125376,2147827675,2147643885,2148911643,2150390875,2148401499,781,7,13,38682
1340211771,5804,126.6399993896484400,19.3875999450683600,36.5961990356445300,260.9714050292969000,124.3683013916015600,19.3861598968505860,29.7421398162841800,85,126,103,82,63,15356,2148249901,2150222107,2152732278,2147840210,2147695808,2149090614,2150702116,2148424658,671,7,13,46608
1340211850,5805,122.6699981689453100,19.3911991119384770,36.5937995910644500,260.9956970214844000,124.2773971557617200,19.3889293670654300,29.7399501800537100,93,132,104,84,64,15343,2148424402,2150627538,2153502601,2147856219,2147767433,2149293723,2151069376,2148450852,829,7,13,5259
1340211929,5803,118.4499969482421900,19.3939990997314450,36.5937004089355500,261.1871948242187500,124.1832962036132800,19.3918094635009770,29.7307090759277340,104,131,105,85,62,15324,2148637293,2151133513,2154463378,2147876315,2147867282,2149533348,2151495049,2148485147,686,7,13,15753
1340212010,5803,114.0400009155273400,19.4041004180908200,36.5941009521484400,261.3012084960937500,123.8236007690429700,19.4027900695800780,29.7211494445800780,116,139,103,85,64,15315,2148935213,2151823670,2155718281,2147907145,2147988516,2149812598,2152018395,2148532818,839,8,13,3324
1340212077,5804,110.3499984741211000,19.4130001068115230,36.5938987731933600,261.8297119140625000,123.5574035644531200,19.4109306335449220,29.6955890655517580,129,140,104,83,64,15302,2149264932,2152579611,2157045476,2147941942,2148112109,2150081874,2152508854,2148576822,885,7,13,28330
1340212156,5802,106.0599975585937500,19.4232006072998050,36.5940017700195300,262.6885986328125000,123.2316970825195300,19.4208793640136720,29.6557407379150400,137,138,105,85,65,15288,2149816530,2153795574,2159073627,2148001755,2148294500,2150495040,2153233746,2148649060,938,7,13,14894
1340212223,5804,102.5800018310546900,19.4319992065429700,36.5941009521484400,263.4834899902344000,122.9244003295898400,19.4302692413330080,29.6186790466308600,148,138,104,84,65,15274,2150415140,2155052918,2161047917,2148059017,2148499337,2150909933,2153911570,2148718290,1167,7,13,46347
1340212304,5802,98.5800018310546900,19.4512996673584000,36.5932998657226560,264.2994995117187500,122.3650970458984400,19.4473590850830080,29.5778999328613280,164,142,105,85,64,15249,2151399021,2157055725,2164024128,2148152832,2148813878,2151547282,2154905106,2148828836,1316,8,13,35910
1340212359,5804,96.0400009155273400,19.4647006988525400,36.5937004089355500,265.9056091308594000,121.8375015258789000,19.4634704589843750,29.5050506591796880,172,147,106,86,64,15216,2152313600,2158901202,2166602368,2148233956,2149103232,2152093376,2155741696,2148921289,1412,7,13,36706
1340212414,5804,93.5899963378906200,19.4927005767822270,36.5928993225097660,267.7402038574219000,120.9412002563476600,19.4908599853515620,29.4187602996826170,149,149,108,85,64,15216,2153355401,2160955584,2169329746,2148328091,2149436534,2152714486,2156665316,2149033526,1328,7,13,14397
1340212469,5803,91.1699981689453100,19.5139007568359380,36.5928993225097660,269.4843139648437500,120.2967987060546900,19.5105495452880860,29.3398494720459000,126,143,106,86,63,15234,2154494692,2163096640,2172053430,2148432905,2149827035,2153464704,2157749668,2149155072,1245,7,13,2994
1340212524,5802,88.8399963378906200,19.5356998443603500,36.5926017761230500,270.5304870605469000,119.5988998413086000,19.5318794250488280,29.2887992858886720,120,144,106,85,65,15240,2155840594,2165532745,2174990875,2148549714,2150294857,2154380361,2159022025,2149290148,1099,7,13,60658
1340212579,5803,86.4700012207031200,19.5601005554199220,36.5923004150390600,271.5419006347656000,118.8065032958984400,19.5561008453369140,29.2383308410644530,108,140,108,85,66,15242,2157338907,2168093787,2178058432,2148701284,2150850176,2155417298,2160365869,2149448502,905,7,13,31511
1340212636,5803,83.9100036621093800,19.5764007568359380,36.5928001403808600,272.3517150878906000,118.0670013427734400,19.5786991119384770,29.1964797973632800,106,140,106,86,65,15230,2159286518,2171373293,2181940772,2148892790,2151589248,2156786916,2162140662,2149643254,730,7,13,62038
1340212691,5802,81.4100036621093800,19.5965003967285160,36.5927009582519500,273.0246887207031000,117.5045013427734400,19.5958900451660160,29.1626091003417970,101,147,107,86,64,15223,2161447899,2174756214,2185723035,2149135030,2152411611,2158234477,2163927862,2149857600,433,7,13,45649
1340212746,5801,78.8799972534179700,19.6303005218505860,36.5932006835937500,273.7257995605469000,116.3303985595703100,19.6317806243896500,29.1199398040771500,99,145,108,87,65,15226,2164015515,2178738066,2190114203,2149389403,2153392676,2159954477,2166036297,2150090038,168,7,13,63196
1340212801,5803,76.3700027465820300,19.6443996429443360,36.5936012268066400,274.4718017578125000,115.9369964599609400,19.6438007354736330,29.0854606628417970,97,143,106,88,63,15216,2166849481,2182958070,2194696338,2149722139,2154510656,2161828406,2168251254,2150359478,3577,7,13,16629
1340212856,5802,73.8499984741211000,19.6618003845214840,36.5938987731933600,275.0683898925781000,115.3026962280273400,19.6632003784179700,29.0540008544921880,98,147,108,87,63,15206,2170327350,2188114816,2200383744,2150158089,2155842395,2163994505,2170753590,2150676608,3247,7,13,7987
1340212911,5805,71.1699981689453100,19.6973991394042970,36.5941009521484400,275.7171936035156000,114.1654968261718800,19.6979694366455080,29.0140895843505860,96,145,108,87,64,15199,2174738404,2194269138,2206759533,2150713517,2157597056,2166825536,2174048859,2151086710,3089,7,13,63016
1340212968,5805,68.3300018310546900,19.7745990753173830,36.5941009521484400,276.4977111816406000,111.9465026855468800,19.7658195495605470,28.9556694030761720,88,147,109,88,62,15186,2179187968,2200131053,2212819053,2151315346,2159612864,2169873517,2177321664,2151516333,3177,7,13,14216
1340213023,5803,65.7500000000000000,19.8052997589111330,36.5957984924316400,277.4154968261719000,110.6496963500976600,19.8054790496826170,28.9034004211425780,86,146,109,88,63,15180,2184299986,2206667181,2219485257,2152133558,2161892233,2173270857,2181082898,2152045979,2670,7,13,24847
1340213078,5803,63.2599983215332000,19.8812007904052730,36.5964012145996100,278.2568969726562500,108.5233993530273400,19.8705291748046880,28.8439903259277340,84,150,112,88,63,15172,2189271899,2212974747,2225957092,2152906313,2164312009,2176842057,2184868507,2152569179,2479,7,13,57244
1340213133,5803,60.9599990844726560,19.9127998352050780,36.5973014831543000,279.1481933593750000,107.1442031860351600,19.9127292633056640,28.7922306060791000,84,147,111,88,62,15175,2195512310,2221150829,2234700333,2153931410,2166952923,2180609728,2188782838,2153105152,2888,7,13,5890
1340213188,5805,58.9900016784668000,20.0230007171630860,36.5993995666503900,279.3817138671875000,103.8675003051757800,20.0130004882812500,28.7420692443847660,85,147,109,90,64,15158,2200424274,2226799908,2239887350,2154714624,2169568502,2184311259,2192532406,2153622738,2651,7,13,23283
1340213255,5749,57.0800018310546900,20.0785999298095700,36.6021003723144500,280.1404113769531000,101.8320999145507800,20.0753002166748050,28.6874198913574220,82,149,107,88,61,15158,2206321124,2233701366,2246747163,2155762203,2172691593,2188494976,2196749202,2154262098,2070,7,13,20474
1340213329,5804,55.1500015258789060,20.2164001464843750,36.6040992736816400,280.2362060546875000,96.8395996093750000,20.2281894683837900,28.6213302612304700,77,149,109,88,65,15153,2215638646,2244576173,2257429321,2157343753,2177627876,2194968548,2202772489,2155217362,1479,7,13,16272
1340213483,5805,51.5900001525878900,20.6350002288818360,36.6054000854492200,280.2753906250000000,84.3012466430664000,20.6125202178955080,28.4635105133056640,73,149,111,89,62,15119,2230676946,2260893467,2272261851,2159942912,2186663049,2206189165,2212417042,2156669476,1635,7,13,1598
1340213635,5802,49.6300010681152340,20.8820991516113280,36.6040000915527340,279.2716979980469000,75.5675888061523400,20.8805599212646500,28.3933506011962900,67,148,110,88,59,15135,2239946038,2270461824,2280742217,2161757193,2194244269,2215272521,2219867236,2157799524,1174,7,13,7253
1340213692,5805,47.8800010681152340,21.0174999237060550,36.6067008972168000,278.2710876464844000,70.4960937500000000,21.0363502502441400,28.3685798645019530,66,148,111,89,60,15130,2248912365,2280538377,2290963812,2163754294,2200883766,2223239634,2226753929,2158881078,1171,8,12,40004
1340213761,5804,45.8100013732910160,21.1495990753173830,36.5979995727539060,277.8218994140625000,67.1074295043945300,21.1404991149902340,28.3439292907714840,63,148,112,89,59,15151,2259534363,2291455625,2301720146,2166516635,2208475245,2231830125,2233893522,2160254866,1626,7,13,18467
1340213842,5804,43.7799987792968750,21.1875000000000000,36.5723991394043000,277.2770996093750000,65.3948974609375000,21.1931495666503900,28.3437995910644530,62,147,111,87,60,15155,2268084800,2299489024,2309173732,2168945947,2217515821,2242129993,2242279844,2161462427,1613,6,13,37052
1340213946,5802,41.6699981689453100,21.2562999725341800,36.5430984497070300,277.0469055175781000,63.0055503845214840,21.2666301727294920,28.3230400085449220,59,150,110,90,60,15160,2280488246,2311523136,2320510244,2172073170,2229784173,2256000274,2252993536,2163187300,1043,8,12,62036
1340214003,5805,39.7900009155273440,21.3395004272460940,36.5344009399414060,276.7137145996094000,60.4551887512207000,21.3450908660888670,28.3043308258056640,57,147,113,90,56,15168,2291542610,2322436461,2331275254,2176261494,2241999360,2269333156,2263259657,2165223350,934,8,13,60639
1340214060,5804,37.7900009155273440,21.4129009246826170,36.5315017700195300,276.5665893554687500,58.0478401184082000,21.4191799163818360,28.2803592681884770,57,150,111,90,57,15161,2302219154,2332027017,2340045531,2179995081,2252803995,2280754989,2271922267,2166693906,519,7,13,53478
1340214117,5803,35.7099990844726560,21.4850006103515620,36.5270004272460940,276.4284973144531000,55.5581703186035160,21.4958305358886720,28.2548904418945300,56,148,112,88,57,15170,2314523529,2343176347,2351005641,2185109220,2266334765,2295037705,2283536118,2169140178,3125,8,13,49637
1340214174,5806,33.4799995422363300,21.5548992156982420,36.5298995971679700,276.2897033691406000,53.5019111633300800,21.5591506958007800,28.2347908020019530,57,147,111,89,57,15158,2334698368,2363918747,2373438235,2193558427,2281267638,2310502765,2296090861,2172062509,2872,7,12,49844
1340214219,5804,31.7399997711181640,21.5678005218505860,36.5262985229492200,276.4729003906250000,52.8721008300781250,21.5785503387451170,28.2200508117675780,57,147,111,88,58,15157,2345623789,2373499437,2383684928,2200830464,2295364205,2325166390,2308247835,2174859291,2608,8,13,58286
1340214274,5800,29.4899997711181640,21.8141994476318360,36.5127983093261700,275.3566894531250000,45.5353584289550800,21.8046703338623050,28.1727600097656250,58,149,110,90,59,15142,2359994669,2385858422,2395885933,2208379318,2313539117,2342911597,2322237421,2179301851,1940,7,13,10224
1340214319,5803,27.4099998474121100,22.1832008361816400,36.4874992370605500,272.7615966796875000,33.2873382568359400,22.1827106475830080,28.1227302551269530,56,147,111,90,59,15120,2377126235,2402608009,2414140214,2218590500,2328791067,2357854528,2333980781,2182340772,1886,7,13,28665
1340214376,5804,25.8299999237060550,22.7919998168945300,36.4827995300293000,268.5903930664062500,15.4275999069213870,22.7353096008300780,28.0671195983886720,56,149,110,91,57,15126,2369400548,2391711168,2400281837,2216378596,2340526674,2369090422,2342725193,2184354697,1249,8,13,23916
